Location: Kuppenheim
(48.8299°N, 8.2568°E)
Time: 15:29:18
(UTC+00:00)

IRS-1D - Pass Details

Date: 20 June 2021
Orbit: 739 x 817 km, 98.6° (Epoch: 31 July)

Event Time Altitude Azimuth Distance (km) Brightness Sun altitude
Rises 01:58:28 0° 15° (NNE) 3,288 8.3 -10.4°
Reaches altitude 10° 02:00:49 10° 16° (NNE) 2,344 7.3 -10.1°
Maximum altitude 02:06:00 84° 104° (ESE) 778 3.6 -9.6°
Drops below altitude 10° 02:11:02 10° 194° (SSW) 2,278 5.4 -9.2°
Enters shadow 02:11:13 - 194° (SSW) 2,351 5.5 -9.1°
